Change the Weather History Date:

Saturday, December 28, 2013

  Actual Average Record
Temperature  
Mean Temperature 45 °F -  
Max Temperature 48 °F 62 °F 80 °F (1984)
Min Temperature 42 °F 38 °F 19 °F (2010)
Degree Days  
Heating Degree Days 20    
Moisture  
Dew Point 41 °F    
Average Humidity 88    
Maximum Humidity 100    
Minimum Humidity 56    
Precipitation  
Precipitation 1.98 in - - ()
Sea Level Pressure  
Sea Level Pressure 30.13 in    
Wind  
Wind Speed 8 mph (ENE)    
Max Wind Speed 16 mph    
Max Gust Speed 21 mph    
Visibility 6 miles    
Events Rain    
Averages and records for this station are not official NWS values.
T = Trace of Precipitation, MM = Missing Value Source: NWS Daily Summary

Daily Weather History Graph

Daily Weather History Graph

Search for Another Location

Airport or City:

Trip Planner

Search our weather history database for the weather conditions in past years. The results will help you decide how hot, cold, wet, or windy it might be!

Date:

Astronomy

Dec. 28, 2013 Rise Set
Actual Time 6:45 AM CST 4:50 PM CST
Civil Twilight 6:18 AM CST 5:17 PM CST
Nautical Twilight 5:48 AM CST 5:48 PM CST
Astronomical Twilight 5:18 AM CST 6:18 PM CST
Moon 2:30 AM CST (12/28) 1:34 PM CST (12/28)
Length of Visible Light 10h 59m
Length of Day
10h 05m
Waning Crescent, 19% of the Moon is Illuminated
Dec 28
Waning Crescent
Jan 1
New
Jan 7
First Quarter
Jan 15
Full
Jan 23
Last Quarter

Hourly Weather History & Observations

Time (CST) Temp. Windchill Dew Point Humidity Pressure Visibility Wind Dir Wind Speed Gust Speed Precip Events Conditions
12:56 AM 48.0 °F - 33.1 °F 56% 30.29 in 10.0 mi ENE 5.8 mph - N/A   Mostly Cloudy
1:56 AM 48.0 °F - 33.1 °F 56% 30.30 in 10.0 mi NE 5.8 mph - N/A   Overcast
2:39 AM 46.4 °F 42.9 °F 35.6 °F 66% 30.28 in 10.0 mi ENE 6.9 mph - 0.00 in Rain Light Rain
2:56 AM 46.0 °F 43.1 °F 36.0 °F 68% 30.28 in 10.0 mi NE 5.8 mph - 0.00 in Rain Light Rain
3:38 AM 46.4 °F 42.4 °F 37.4 °F 71% 30.26 in 10.0 mi ENE 8.1 mph - 0.01 in Rain Light Rain
3:56 AM 45.0 °F 41.8 °F 37.9 °F 76% 30.25 in 10.0 mi NE 5.8 mph - 0.01 in Rain Light Rain
4:49 AM 44.6 °F 41.4 °F 37.4 °F 76% 30.25 in 10.0 mi East 5.8 mph - 0.00 in   Overcast
4:56 AM 44.1 °F 36.8 °F 37.9 °F 79% 30.25 in 10.0 mi South 16.1 mph 20.7 mph 0.00 in   Overcast
5:56 AM 44.1 °F 41.5 °F 39.0 °F 82% 30.25 in 10.0 mi East 4.6 mph - 0.03 in Rain Light Rain
6:20 AM 44.6 °F 41.4 °F 39.2 °F 81% 30.25 in 10.0 mi ENE 5.8 mph - 0.01 in Rain Light Rain
6:56 AM 43.0 °F 38.8 °F 39.9 °F 89% 30.26 in 3.0 mi ENE 6.9 mph - 0.07 in Rain Heavy Rain
7:08 AM 42.8 °F 38.0 °F 39.2 °F 87% 30.26 in 3.0 mi East 8.1 mph - 0.04 in Rain Heavy Rain
7:39 AM 42.8 °F 37.5 °F 39.2 °F 87% 30.27 in 3.0 mi East 9.2 mph - 0.15 in Rain Heavy Rain
7:46 AM 42.8 °F 38.0 °F 39.2 °F 87% 30.28 in 2.5 mi East 8.1 mph - 0.17 in Rain Heavy Rain
7:56 AM 42.1 °F 37.1 °F 39.9 °F 92% 30.28 in 2.0 mi East 8.1 mph - 0.21 in Rain Heavy Rain
8:28 AM 42.8 °F 38.0 °F 39.2 °F 87% 30.27 in 1.8 mi ENE 8.1 mph - 0.14 in Rain Heavy Rain
8:38 AM 42.8 °F 37.0 °F 39.2 °F 87% 30.27 in 2.0 mi NE 10.4 mph - 0.19 in Rain Heavy Rain
8:56 AM 42.1 °F 37.1 °F 39.9 °F 92% 30.28 in 2.5 mi NE 8.1 mph - 0.29 in Rain Heavy Rain
9:00 AM 42.8 °F 37.5 °F 39.2 °F 87% 30.27 in 3.0 mi NE 9.2 mph - 0.01 in Rain Heavy Rain
9:11 AM 42.8 °F 37.5 °F 41.0 °F 93% 30.27 in 3.0 mi NE 9.2 mph - 0.05 in Rain Heavy Rain
9:56 AM 43.0 °F 36.8 °F 41.0 °F 93% 30.25 in 6.0 mi NE 11.5 mph 20.7 mph 0.17 in Rain Light Rain
10:56 AM 44.1 °F 38.6 °F 42.1 °F 93% 30.21 in 10.0 mi ENE 10.4 mph - 0.04 in Rain Light Rain
11:16 AM 44.6 °F 39.2 °F 42.8 °F 93% 30.20 in 10.0 mi ENE 10.4 mph - 0.00 in Rain Light Rain
11:26 AM 44.6 °F 40.2 °F 42.8 °F 93% 30.19 in 6.0 mi ENE 8.1 mph - 0.01 in Rain Light Rain
11:56 AM 44.1 °F 37.4 °F 42.1 °F 93% 30.15 in 5.0 mi ENE 13.8 mph - 0.03 in Rain Light Rain
12:03 PM 44.6 °F 39.2 °F 42.8 °F 93% 30.14 in 5.0 mi ENE 10.4 mph - 0.01 in Rain Rain
12:56 PM 44.1 °F 39.0 °F 42.1 °F 93% 30.11 in 4.0 mi East 9.2 mph - 0.12 in Rain Heavy Rain
1:56 PM 44.1 °F 37.7 °F 42.1 °F 93% 30.05 in 9.0 mi ENE 12.7 mph - 0.08 in Rain Light Rain
2:56 PM 44.1 °F 38.6 °F 43.0 °F 96% 30.01 in 7.0 mi ENE 10.4 mph 17.3 mph 0.04 in Rain Light Rain
3:22 PM 44.6 °F 39.7 °F 42.8 °F 93% 30.01 in 2.0 mi East 9.2 mph - 0.10 in Rain Heavy Rain
3:31 PM 44.6 °F 39.2 °F 42.8 °F 93% 30.00 in 3.0 mi East 10.4 mph - 0.13 in Rain Heavy Rain
3:39 PM 44.6 °F 39.7 °F 42.8 °F 93% 29.99 in 2.5 mi ENE 9.2 mph 16.1 mph 0.18 in Rain Heavy Rain
3:49 PM 44.6 °F 39.7 °F 42.8 °F 93% 30.00 in 3.0 mi ENE 9.2 mph - 0.25 in Rain Heavy Rain
3:56 PM 44.1 °F 38.1 °F 42.1 °F 93% 29.99 in 3.0 mi ENE 11.5 mph 16.1 mph 0.30 in Rain Heavy Rain
4:33 PM 44.6 °F 39.7 °F 42.8 °F 93% 29.98 in 2.5 mi ENE 9.2 mph - 0.26 in Rain Heavy Rain
4:46 PM 44.6 °F 40.2 °F 42.8 °F 93% 29.96 in 6.0 mi ENE 8.1 mph - 0.29 in Rain Rain
4:56 PM 44.1 °F 39.0 °F 43.0 °F 96% 29.97 in 6.0 mi East 9.2 mph - 0.32 in Rain Rain
5:56 PM 45.0 °F 39.7 °F 43.0 °F 93% 29.95 in 10.0 mi East 10.4 mph - 0.12 in Rain Light Rain
6:56 PM 45.0 °F - 43.0 °F 93% 30.00 in 3.0 mi Calm Calm - 0.14 in Rain Rain
7:08 PM 44.6 °F - 44.6 °F 100% 29.99 in 10.0 mi Calm Calm - 0.00 in Rain Light Rain
7:56 PM 45.0 °F 43.5 °F 44.1 °F 97% 29.97 in 10.0 mi NE 3.5 mph - 0.00 in   Overcast
8:56 PM 45.0 °F 42.6 °F 44.1 °F 97% 29.95 in 10.0 mi NE 4.6 mph - 0.00 in Rain Light Rain
9:56 PM 46.0 °F - 44.1 °F 93% 29.92 in 10.0 mi Calm Calm - 0.00 in   Overcast
10:56 PM 45.0 °F 41.8 °F 44.1 °F 97% 29.91 in 2.5 mi NW 5.8 mph - 0.00 in   Overcast
11:20 PM 44.6 °F 40.7 °F 42.8 °F 93% 29.91 in 3.0 mi NNW 6.9 mph - N/A   Overcast
11:56 PM 44.1 °F 41.5 °F 43.0 °F 96% 29.88 in 2.5 mi NNE 4.6 mph - 0.01 in   Overcast